{"data":{"norad_id":58783,"intl_designator":"2024-011U","name":"STARLINK-31047","alt_names":[],"object_type":"PAYLOAD","status":"ACTIVE","operator":null,"country":"US","launch_date":"2024-01-14","launch_site_code":"AFWTR","launch_vehicle":null,"mission":null,"orbit_class":"UNKNOWN","rcs_meters":null,"size_class":null,"mass_kg":null,"dimensions":null,"purposes":["comms"],"wikipedia_slug":null,"has_3d_model":false,"image_url":null,"decayed_at":null,"tle_current":{"epoch":"2026-05-25T00:23:00.069792Z","epoch_age_seconds":73420,"freshness":"FRESH","line1":"1 58783U 24011U   26145.01597303  .00001693  00000+0  61233-4 0  9992","line2":"2 58783  53.1617   3.2425 0001159  71.1232 288.9896 15.34390934132179","mean_motion":15.34390934,"eccentricity":0.0001159,"inclination_deg":53.1617,"raan_deg":3.2425,"arg_perigee_deg":71.1232,"mean_anomaly_deg":288.9896,"bstar":6.1233e-5,"rev_number":13217,"period_min":93.848312583943,"perigee_km":461.93732989545,"apogee_km":463.52304290926,"semimajor_km":6840.8671864024,"source":"CELESTRAK","updated_at":"2026-05-25T13:38:18.747481Z"}}}